This is the latest recevied weather packets stored in our database for station/object KE5WTH-14. If no packets are shown the sender has not sent any weather packets the latest 1 day(s).
| Time | Temp. | Humidity | Pressure | Rain* | Wind** | Luminosity | Snow |
|---|---|---|---|---|---|---|---|
| 1778050988 | 13.89° C | 78% | 1010 hPa | 0 mm | 3.13 m/s, 8° | 0 W/m² | - |
| 1778050923 | 13.89° C | 78% | 1009.9 hPa | 0 mm | 2.24 m/s, 0° | 0 W/m² | - |
| 1778050863 | 13.89° C | 78% | 1009.9 hPa | 0 mm | 1.79 m/s, 28° | 0 W/m² | - |
| 1778050806 | 13.89° C | 78% | 1009.9 hPa | 0 mm | 1.79 m/s, 0° | 0 W/m² | - |
| 1778050742 | 13.89° C | 78% | 1010 hPa | 0 mm | 2.24 m/s, 0° | 0 W/m² | - |
| 1778050688 | 13.89° C | 79% | 1010 hPa | 0 mm | 2.24 m/s, 6° | 0 W/m² | - |
| 1778050623 | 13.89° C | 79% | 1009.9 hPa | 0 mm | 2.24 m/s, 341° | 0 W/m² | - |
| 1778050563 | 13.89° C | 78% | 1010 hPa | 0 mm | 1.79 m/s, 0° | 0 W/m² | - |
| 1778050501 | 13.89° C | 79% | 1010 hPa | 0 mm | 1.79 m/s, 0° | 0 W/m² | - |
| 1778050442 | 13.89° C | 78% | 1010 hPa | 0 mm | 2.24 m/s, 13° | 0 W/m² | - |
| 1778050380 | 13.89° C | 79% | 1010 hPa | 0 mm | 2.24 m/s, 14° | 0 W/m² | - |
| 1778050321 | 13.89° C | 78% | 1009.9 hPa | 0 mm | 2.24 m/s, 18° | 0 W/m² | - |
| 1778050262 | 13.89° C | 78% | 1009.8 hPa | 0 mm | 3.13 m/s, 11° | 0 W/m² | - |
| 1778050202 | 13.89° C | 78% | 1009.9 hPa | 0 mm | 2.68 m/s, 10° | 0 W/m² | - |
| 1778050142 | 13.89° C | 78% | 1010 hPa | 0 mm | 2.68 m/s, 353° | 0 W/m² | - |
| 1778050081 | 13.89° C | 78% | 1010 hPa | 0 mm | 1.79 m/s, 21° | 0 W/m² | - |
| 1778050021 | 13.89° C | 78% | 1010.1 hPa | 0 mm | 1.79 m/s, 354° | 0 W/m² | - |
| 1778049962 | 13.89° C | 78% | 1010.1 hPa | 0 mm | 1.79 m/s, 18° | 0 W/m² | - |
| 1778049899 | 13.89° C | 78% | 1010 hPa | 0 mm | 2.24 m/s, 20° | 0 W/m² | - |
| 1778049838 | 13.89° C | 78% | 1010 hPa | 0 mm | 2.68 m/s, 16° | 0 W/m² | - |
| 1778049777 | 13.89° C | 78% | 1010 hPa | 0 mm | 3.13 m/s, 0° | 0 W/m² | - |
| 1778049712 | 13.89° C | 78% | 1009.9 hPa | 0 mm | 3.13 m/s, 8° | 0 W/m² | - |
| 1778049650 | 13.89° C | 78% | 1010 hPa | 0 mm | 3.13 m/s, 0° | 0 W/m² | - |
| 1778049589 | 13.89° C | 78% | 1010 hPa | 0 mm | 2.68 m/s, 17° | 0 W/m² | - |
| 1778049528 | 13.89° C | 78% | 1010 hPa | 0 mm | 2.68 m/s, 354° | 0 W/m² | - |
* Rain latest hour (hover to see other rain measurements)
** Current wind speed in m/s (hover to see current wind gust speed)